Theta_e
323 316 319 317 306 306 301 303 308 305 306 308 313 316 315 314 313 309 324 327 326 331 334 336 340 339 339 339 339 339 339 339 339 338 338 338 336 337 337 337 338 339 339 339 338 338 338 338 339
318 316 317 312 302 298 299 306 303 308 307 309 312 314 314 311 315 317 320 322 326 329 331 333 337 336 336 336 336 336 335 336 335 334 333 333 333 333 333 333 333 334 335 335 335 334 333 332 334
315 314 311 305 300 297 299 304 306 306 307 307 307 310 311 309 315 320 323 323 325 325 329 330 334 333 333 333 332 331 331 331 330 330 329 329 330 329 328 328 328 329 329 329 329 328 327 326 327
312 311 310 300 297 302 302 303 304 304 306 307 307 306 307 310 317 320 323 323 322 323 325 329 331 330 330 329 329 328 327 327 326 325 326 326 325 325 325 324 324 324 324 324 324 323 321 321 321
313 309 299 297 298 302 302 304 304 304 305 306 306 305 305 311 318 322 324 324 322 321 323 325 329 327 326 326 325 324 324 322 322 322 322 323 322 322 321 321 321 321 321 320 320 319 318 317 317
303 305 296 294 297 301 303 304 304 303 305 305 304 305 306 313 318 320 323 323 324 321 322 321 323 325 323 322 321 320 319 319 318 318 318 318 318 318 317 317 317 317 317 317 316 315 314 314 314
303 299 295 296 296 297 300 303 303 303 304 305 307 303 305 310 318 320 321 320 320 320 320 320 318 318 319 319 317 317 315 314 314 313 313 312 312 312 312 312 313 314 313 313 312 311 310 310 310
305 301 295 295 294 294 300 301 302 304 304 306 307 304 304 310 317 318 317 316 316 316 316 316 315 314 312 312 314 313 311 310 309 307 306 307 307 307 306 307 308 309 310 310 309 309 308 307 306
306 296 294 294 294 296 299 298 301 302 302 304 304 305 305 314 316 314 313 312 311 310 311 312 311 312 311 309 308 308 307 306 306 304 302 307 304 303 303 303 304 305 305 306 306 306 305 306 307
300 296 295 297 297 297 298 298 299 299 300 301 301 304 309 313 313 311 310 309 307 305 305 307 308 308 306 304 306 306 305 306 305 305 305 304 303 301 301 301 299 300 302 302 304 304 305 307 303
300 295 296 296 298 297 297 297 299 298 298 302 301 303 307 310 311 311 311 310 308 306 304 305 306 306 306 306 306 306 306 305 305 305 305 305 304 304 303 303 303 303 303 302 303 303 302 303 303
294 295 295 296 295 295 295 297 297 298 300 300 301 304 306 308 309 310 310 310 308 305 304 304 305 305 306 306 306 305 304 305 304 304 304 305 304 304 303 302 302 302 302 302 302 302 302 302 302
295 294 295 295 295 295 295 295 295 296 300 301 299 300 303 306 308 311 312 311 308 305 304 304 305 305 305 305 305 304 303 303 303 303 303 304 303 303 302 302 301 301 301 301 300 300 300 301 301
295 294 294 294 294 294 293 294 293 296 298 297 297 298 301 303 306 309 309 308 306 305 304 305 304 304 304 304 304 304 303 302 302 303 302 302 302 302 301 301 300 300 300 300 300 299 299 300 300
295 292 293 294 294 294 294 292 292 298 296 296 296 297 299 301 303 306 308 308 307 306 305 305 304 304 303 303 303 303 303 302 302 302 301 300 300 300 300 300 300 300 299 299 299 299 299 299 300
292 292 289 293 294 294 294 292 295 296 296 296 297 297 297 299 302 304 307 307 309 307 305 305 304 304 303 303 303 302 302 302 302 301 301 300 299 299 299 299 299 299 299 298 298 298 297 298 298
292 292 290 290 293 292 293 293 295 297 298 298 299 299 300 299 300 302 304 306 308 307 306 305 304 303 303 303 303 302 302 302 301 301 301 299 299 298 298 298 298 298 298 298 297 297 296 296 297
291 289 289 290 291 292 292 293 297 298 297 296 296 297 296 296 297 300 302 304 305 306 306 305 304 304 304 303 302 302 301 301 301 301 300 299 299 297 297 297 297 297 297 297 296 295 296 296 297
290 289 288 290 290 288 291 290 292 293 294 294 295 295 295 295 298 298 299 301 304 305 305 304 304 304 303 301 301 301 300 301 301 300 300 299 298 297 297 296 296 296 295 295 295 295 294 294 296
290 288 288 290 289 287 288 288 290 291 291 293 293 294 294 295 296 297 298 299 302 304 304 304 304 303 302 303 303 303 302 302 301 301 299 299 298 297 296 295 295 295 294 294 294 294 292 293 295
287 286 285 285 287 287 286 288 289 291 292 293 293 294 295 294 295 296 297 298 301 303 303 303 304 303 303 302 302 299 299 299 298 298 298 298 297 297 296 295 295 295 295 294 294 294 292 291 293
285 286 285 283 286 284 286 283 287 290 290 290 291 291 292 294 295 296 296 298 300 303 304 304 304 303 302 302 300 299 298 298 300 299 300 298 297 296 295 295 295 294 294 294 294 294 293 292 290
284 286 284 283 284 282 282 283 286 289 287 289 289 290 292 294 294 295 296 297 299 301 302 303 302 302 301 301 300 300 299 300 300 299 298 298 298 297 295 295 294 294 294 294 294 293 293 293 291
286 283 283 284 285 281 276 279 284 286 285 287 288 290 291 292 293 294 296 297 298 299 300 300 299 299 300 300 300 299 298 299 298 298 297 298 298 297 295 294 294 294 294 293 294 293 293 293 292
284 284 283 281 281 280 274 278 285 285 286 287 287 289 291 292 292 293 293 294 295 296 297 297 297 297 298 298 298 299 298 298 297 297 298 297 297 296 294 294 293 293 294 293 293 293 292 292 290
282 282 281 275 277 280 273 278 283 286 287 289 289 289 290 291 292 292 293 293 293 294 295 296 296 296 297 297 297 298 297 297 297 297 297 297 296 296 295 294 293 293 293 292 292 292 291 290 290
282 282 281 277 269 276 282 283 285 286 285 286 286 287 287 289 290 291 292 293 293 293 293 294 294 294 295 295 297 296 297 297 296 297 297 296 296 294 293 293 292 293 292 292 292 291 290 290 290
282 281 280 281 274 274 279 278 283 280 281 283 284 284 285 287 289 291 291 291 291 292 292 294 294 293 294 294 295 295 296 296 296 296 295 295 295 294 292 291 292 292 292 292 291 290 290 289 289
279 280 279 280 279 277 276 281 283 283 282 281 281 283 284 285 288 289 289 290 291 291 291 291 291 292 293 293 294 294 294 295 295 294 294 294 294 293 292 291 291 291 291 291 290 290 289 288 288
281 282 282 278 277 277 275 278 284 283 282 282 281 282 284 285 287 288 289 290 290 289 289 289 290 290 291 292 292 292 293 293 293 293 293 294 293 293 291 291 291 290 290 290 289 289 289 288 287
Wind_Speed
12 6 5 5 7 6 9 5 6 4 3 3 3 5 8 10 9 4 6 9 4 8 7 10 14 16 17 17 16 14 15 16 16 15 14 14 13 14 15 15 15 15 14 14 13 13 14 14 14
8 3 4 4 8 11 9 9 7 6 5 3 1 2 2 6 7 9 9 6 6 5 9 9 12 16 16 16 16 15 15 15 15 15 14 14 14 15 15 15 15 15 14 14 14 14 13 13 13
7 5 5 5 10 13 9 4 8 6 3 2 2 2 4 5 3 8 13 10 9 7 10 9 11 15 16 17 18 16 15 14 15 14 13 15 15 15 15 15 15 15 14 14 14 13 13 13 13
5 5 4 9 13 11 11 4 3 3 3 2 1 4 6 4 4 5 12 11 11 10 9 10 13 14 16 16 17 15 15 14 14 15 15 15 15 15 15 15 14 14 14 14 14 13 13 12 13
5 4 8 11 17 13 2 6 4 8 5 3 3 3 5 5 5 12 13 11 13 11 10 10 12 15 13 15 17 16 15 14 14 15 15 16 15 15 15 15 14 14 14 13 13 13 13 13 13
5 5 8 13 13 5 5 4 5 6 3 3 4 3 6 7 10 11 11 10 10 13 13 12 12 14 14 15 15 15 14 14 14 15 15 16 16 16 15 14 14 13 13 13 13 13 13 13 13
9 7 11 9 7 5 6 1 7 6 5 5 3 4 6 9 10 11 10 9 10 10 11 11 11 12 13 14 14 14 14 14 14 15 15 15 15 15 14 14 13 13 13 13 12 12 12 11 12
5 5 5 6 6 5 3 2 4 5 2 4 4 0 5 11 13 11 10 9 9 9 9 10 10 9 10 10 13 13 13 14 14 13 12 12 12 12 12 11 12 12 12 12 12 12 12 10 9
2 5 7 4 5 3 3 3 2 3 4 2 2 4 3 16 15 12 10 9 8 7 8 7 8 8 9 9 10 11 12 11 11 9 3 2 6 6 9 10 10 11 9 10 11 12 11 12 5
6 6 3 6 5 3 2 4 3 4 7 6 5 6 9 14 14 14 13 11 11 10 9 7 7 7 7 6 7 6 5 5 5 5 6 5 6 5 4 4 2 3 7 5 9 9 10 8 7
3 4 3 3 5 4 3 4 1 5 7 5 3 11 10 12 13 13 12 11 11 11 7 7 7 6 6 5 4 3 3 3 4 5 5 4 4 4 4 3 4 5 6 6 7 7 7 9 7
5 0 3 2 3 3 3 6 5 7 3 5 4 2 10 12 13 12 12 11 11 11 9 8 6 5 4 4 3 3 3 3 3 4 4 3 2 3 4 4 4 4 4 6 6 5 7 8 9
5 2 1 1 1 3 5 7 8 8 6 4 1 2 7 9 10 10 10 9 10 11 11 10 9 7 5 4 4 3 4 3 3 3 3 3 3 3 4 4 4 4 5 6 6 7 7 8 9
2 2 2 1 2 1 6 5 3 4 2 1 5 7 5 7 9 10 11 12 12 12 12 11 10 8 7 4 4 3 3 3 2 2 3 3 3 3 4 4 4 4 5 5 6 7 7 7 8
4 4 3 2 3 2 5 7 7 3 0 4 1 1 4 5 7 10 11 12 12 11 12 11 10 9 7 6 5 3 3 2 2 2 2 2 3 3 4 4 4 5 6 7 6 7 7 8 8
4 3 4 5 6 2 5 2 5 3 1 1 1 1 2 4 7 8 9 11 12 12 13 12 9 10 8 6 5 3 3 2 2 2 1 1 1 3 4 4 4 5 5 6 6 7 8 8 8
2 2 4 4 4 4 2 6 6 2 4 9 8 7 5 6 6 6 8 9 10 11 12 12 11 10 9 7 5 4 4 3 2 2 2 2 1 3 4 4 4 5 5 5 6 7 8 8 8
4 4 3 2 6 5 8 11 9 9 9 10 8 6 7 7 8 8 5 7 9 10 11 11 10 10 9 6 5 4 3 3 3 3 2 2 1 3 3 3 4 4 5 5 6 8 7 8 8
3 1 2 4 4 6 4 11 12 8 6 6 6 6 8 9 7 7 5 6 8 8 10 11 11 10 8 6 5 4 5 4 4 3 3 3 3 2 3 3 4 4 5 6 7 7 9 8 8
2 1 0 1 2 5 7 13 5 7 7 8 8 9 10 10 10 10 8 1 5 8 9 10 11 10 8 5 4 2 1 1 2 2 4 4 4 3 3 3 4 4 4 6 6 6 6 7 7
4 2 2 3 9 1 11 3 7 10 12 11 11 9 11 12 12 12 10 5 3 6 8 8 8 8 8 7 3 2 1 1 3 4 4 4 5 3 4 4 4 4 4 5 5 6 7 6 6
2 4 3 4 5 2 7 1 8 7 10 12 11 12 11 12 12 11 11 10 8 4 3 5 6 7 7 7 5 5 4 4 3 2 1 3 5 5 5 5 5 5 4 6 5 5 6 6 7
4 2 3 2 0 2 3 3 8 7 5 9 12 12 12 11 11 11 11 9 9 8 6 3 3 3 4 5 5 4 5 5 4 4 5 6 6 6 6 5 5 5 5 5 6 7 6 6 6
4 1 2 1 1 3 3 4 5 1 5 6 10 12 12 12 12 13 11 10 9 8 7 6 4 3 2 3 4 6 7 7 6 6 5 5 5 5 7 7 6 6 6 6 6 6 7 7 7
2 1 1 3 3 1 1 4 2 5 7 9 9 10 12 12 12 12 12 11 10 9 7 4 3 1 3 4 5 6 7 8 9 8 6 7 5 6 7 8 7 6 6 6 6 7 7 7 6
0 2 3 4 2 3 1 6 3 10 8 8 9 9 9 11 11 11 11 10 10 11 10 9 7 6 5 7 7 7 8 6 7 8 7 6 6 6 6 6 7 7 7 6 6 5 5 7 6
3 2 3 3 1 3 3 3 7 9 5 6 8 9 10 10 9 10 10 10 11 10 11 10 9 8 9 10 8 9 8 8 8 9 8 6 7 6 7 8 8 7 7 7 6 5 6 7 7
2 3 2 2 3 5 4 5 6 12 10 2 5 6 8 8 9 8 8 9 9 9 9 9 9 10 9 9 9 8 9 9 8 8 10 9 8 8 8 8 9 8 8 7 7 6 7 9 7
4 3 2 2 3 4 4 4 4 13 13 9 3 4 4 6 6 6 6 6 8 9 10 10 10 10 8 8 9 9 9 10 9 9 10 10 9 9 10 10 10 9 9 8 8 8 9 10 10
2 3 5 5 4 2 4 7 6 13 11 7 4 2 5 5 5 5 7 8 9 10 11 12 10 10 9 10 9 9 10 9 10 11 11 11 11 10 10 10 10 10 9 8 9 9 9 10 10
Wind_Direction
284 276 288 257 246 227 258 209 273 217 223 58 339 312 11 35 2 28 120 79 61 91 61 77 91 92 88 86 81 80 79 81 80 84 90 83 79 72 69 62 59 59 58 53 47 42 38 29 24
304 299 231 265 254 242 236 220 223 257 73 116 143 278 263 72 55 113 135 111 104 93 101 84 93 96 96 94 91 83 80 81 84 81 81 82 77 72 66 64 62 58 56 55 51 45 38 35 26
254 241 239 224 243 250 262 133 255 84 134 227 150 346 16 70 82 118 95 125 109 68 93 88 97 101 97 97 90 84 75 81 84 81 80 76 74 69 66 59 56 54 52 49 47 44 38 32 28
201 187 240 246 241 243 287 104 15 152 175 208 309 155 104 45 130 96 133 129 107 90 88 82 95 98 102 97 97 93 97 89 86 81 79 74 72 69 64 59 55 51 47 43 40 36 33 32 24
219 228 226 234 249 247 265 318 289 268 282 187 193 146 84 107 113 133 145 145 132 116 107 100 94 98 94 97 97 96 92 90 86 85 81 76 71 67 61 59 55 50 45 41 39 30 27 21 22
206 259 234 234 237 234 243 225 240 243 225 123 231 197 94 122 151 146 145 142 131 126 118 101 76 88 92 93 92 93 91 88 83 80 77 74 71 66 59 54 53 49 45 40 36 31 23 19 16
260 224 248 277 291 260 232 209 233 251 208 198 356 230 93 158 150 146 147 136 129 124 124 121 108 94 86 91 91 90 86 85 83 80 77 75 71 67 64 51 48 46 41 39 33 26 21 14 12
276 273 255 242 248 248 82 216 353 264 172 67 341 11 124 155 149 150 142 142 140 137 134 122 131 123 113 99 86 92 94 89 84 80 82 90 82 72 56 58 44 41 36 31 26 20 13 1 0
292 249 246 243 242 62 88 238 103 13 268 202 84 26 57 133 151 154 154 156 145 149 138 137 135 128 119 112 106 103 95 98 106 98 90 107 55 60 71 54 43 32 27 22 14 8 1 342 321
235 252 267 28 14 15 14 307 1 273 200 209 177 105 132 149 166 171 175 172 172 165 155 149 146 138 135 127 126 109 103 77 73 64 55 58 61 46 51 92 76 55 359 344 358 360 343 350 348
174 273 47 70 25 348 323 263 277 277 252 249 260 156 161 169 182 188 189 186 181 171 160 159 155 147 150 125 133 127 114 105 87 70 60 44 33 19 19 11 15 360 11 360 351 353 358 345 340
222 28 355 41 23 317 286 320 259 248 313 50 37 66 171 188 193 198 199 192 185 178 172 164 159 164 138 126 138 127 121 117 99 77 50 30 34 16 9 7 3 355 354 351 348 340 337 329 327
245 135 87 68 338 311 307 265 285 270 253 185 191 182 190 202 205 205 207 202 188 186 181 173 168 164 156 166 139 125 121 105 94 85 62 18 16 18 357 0 354 350 350 350 338 332 333 328 325
77 168 128 54 8 321 307 280 296 114 44 204 239 241 234 223 212 204 202 204 197 192 186 176 173 172 163 161 146 121 116 112 101 87 69 51 4 5 349 346 346 343 348 341 330 329 327 320 315
152 176 180 54 348 334 327 246 236 295 262 286 323 244 234 237 231 223 209 214 202 198 185 180 178 171 170 156 146 140 133 138 141 120 111 60 6 352 340 344 335 349 337 330 330 328 326 319 316
217 235 217 87 0 110 304 75 97 94 14 59 33 145 224 240 233 228 223 214 208 195 189 179 177 173 173 166 160 151 149 167 160 174 174 168 357 341 327 332 339 349 324 332 334 330 325 320 316
179 253 230 142 40 319 276 321 107 155 285 303 293 266 275 298 274 245 234 225 216 202 192 181 179 175 174 168 166 165 163 187 192 202 206 183 302 338 323 329 336 335 327 325 331 329 323 318 315
184 210 196 301 30 329 277 276 315 322 316 309 310 346 343 324 315 321 294 232 217 205 193 182 179 173 171 164 170 182 181 205 206 218 216 209 267 310 311 313 321 326 323 325 333 324 321 312 313
345 342 317 83 27 316 317 304 324 1 43 44 40 53 26 16 4 355 312 253 211 201 195 185 178 176 175 182 182 210 219 203 214 212 200 211 228 265 286 307 312 323 315 323 321 324 322 326 332
37 41 353 122 33 317 331 309 53 33 38 42 34 34 31 24 19 20 10 301 209 194 191 188 184 182 187 189 202 251 202 203 263 198 203 214 217 227 263 283 298 305 310 312 320 328 324 322 351
42 7 28 341 323 173 313 175 117 89 75 62 48 37 37 33 25 23 29 42 143 182 193 191 186 188 189 191 172 167 136 204 218 211 228 215 225 227 248 267 277 292 294 301 311 316 315 318 323
214 24 22 6 345 329 358 203 142 128 90 64 44 32 30 29 36 34 36 43 44 66 138 180 185 186 191 187 194 221 252 273 289 321 256 211 218 242 239 251 264 280 286 285 292 294 304 302 311
57 33 47 55 46 299 20 242 125 180 99 40 36 37 38 35 38 41 41 50 54 49 56 67 124 156 162 183 227 232 250 274 285 278 247 241 232 231 241 246 263 268 273 278 284 286 287 294 293
113 341 47 183 156 223 98 326 141 56 348 54 62 57 47 42 43 43 46 49 53 54 55 52 55 83 157 217 230 251 267 277 275 264 257 251 241 235 226 233 243 254 260 263 270 278 279 285 295
20 283 231 205 213 321 194 257 26 80 85 92 76 53 47 43 41 40 40 39 38 33 28 34 13 278 244 256 262 263 269 275 271 268 256 250 242 229 231 220 235 244 252 263 269 272 277 287 286
309 323 309 281 244 58 232 233 147 124 110 105 73 57 48 42 34 31 31 35 33 27 19 7 349 320 293 275 274 278 274 264 265 256 250 246 245 247 240 232 240 245 248 258 264 267 273 272 260
111 268 37 97 125 258 178 235 176 159 123 110 64 43 24 23 27 29 30 35 37 33 26 16 1 343 326 312 301 291 282 267 261 262 254 250 247 247 243 238 240 240 245 252 263 266 273 271 274
265 52 182 190 257 251 187 260 232 174 170 146 58 26 0 357 16 26 27 26 30 29 19 12 8 1 352 338 320 300 292 286 271 266 257 246 244 241 240 242 243 244 242 245 249 260 264 269 273
142 190 219 313 263 272 279 228 326 178 155 140 106 9 322 319 352 355 359 5 13 17 6 355 353 348 346 340 336 323 307 291 276 260 259 253 250 243 238 238 239 239 243 245 249 254 260 263 265
265 258 217 240 175 253 317 273 4 114 119 125 125 307 313 302 312 306 319 343 359 356 346 338 335 331 331 328 325 320 315 306 288 273 262 253 247 239 239 238 237 237 238 243 249 255 262 268 271